Location: Pine Mountain Observatory
(43.7910°N, 120.9377°W)
Time: 00:03:25
(UTC-08:00)

Daily predictions for brighter satellites

Satellite Brightness Start Highest point End
(mag) Time Altitude Azimuth Time Altitude Azimuth Time Altitude Azimuth
Cosmos 2237 Rocket 4.4 04:04:42 16° SE 04:04:42 16° SE 04:05:50 10° SE
SL-16 R/B 3.7 04:04:45 32° ENE 04:04:45 32° ENE 04:09:09 10° ESE
Cosmos 2297 Rocket 3.4 04:15:15 39° ENE 04:15:15 39° ENE 04:19:12 10° NE
Cosmos 2227 Rocket 3.4 04:28:46 35° NNE 04:28:46 35° NNE 04:31:57 10° NNE
USA 234 4.2 04:23:28 10° E 04:29:20 36° NNE 04:30:21 34° N
Tsikada Rocket 3.9 04:49:34 43° N 04:51:55 89° W 04:58:14 10° S
Cosmos 2082 4.1 04:56:44 51° N 04:56:44 51° N 05:01:08 10° NNE
Cosmos 2333 Rocket 4.5 05:03:32 11° SSW 05:03:32 11° SSW 05:03:40 10° SSW
SeaSat 1 3.9 04:59:53 10° NNE 05:02:07 26° N 05:02:07 26° N
SKYMED 2 3.9 05:00:46 10° SSE 05:05:02 64° ENE 05:05:22 62° NE
ADEOS II 4.4 05:02:21 10° N 05:02:28 11° N 05:02:28 11° N
Cosmos 968 Rocket 4.0 05:02:45 10° S 05:07:53 58° ESE 05:13:04 10° NNE
NOAA 6 4.0 05:09:14 10° NNE 05:14:27 88° ESE 05:19:39 10° SSW
Cosmos 1328 4.0 05:16:15 64° NE 05:16:33 68° E 05:20:31 10° SSE
Cosmos 1864 Rocket 4.4 05:15:30 36° SW 05:17:51 58° WNW 05:23:56 10° N
Cosmos 1725 Rocket 4.0 05:11:49 10° SSW 05:17:56 57° WNW 05:24:10 10° N
ISS -1.9 05:21:28 36° SE 05:21:28 36° SE 05:23:31 10° SE
Cosmos 304 Rocket 3.6 05:22:03 67° NW 05:22:35 75° WSW 05:27:20 10° SSE
Cosmos 2221 4.1 05:22:30 10° SSE 05:26:29 36° E 05:30:27 10° NNE
USA 229 DEB 3.9 05:25:53 40° WNW 05:28:00 52° WSW 05:34:57 10° SSE
USA 229 3.9 05:25:56 40° WNW 05:28:06 53° WSW 05:35:04 10° SSE
Genesis I 4.1 05:28:50 34° N 05:30:00 46° NE 05:33:47 10° SE
Aureole 2 Rocket 4.4 05:33:56 23° SSW 05:33:56 23° SSW 05:35:44 10° S
Cosmos 2058 3.5 05:28:18 11° N 05:32:08 57° E 05:36:11 10° SSE
CSL-04 Rocket 4.3 05:29:40 10° NNE 05:34:53 55° E 05:40:02 10° S
Cosmos 1777 Rocket 4.5 05:36:41 10° S 05:41:49 61° ESE 05:46:57 10° NNE
NOSS 3-1 (A) 4.2 05:35:48 18° NNW 05:41:49 75° NE 05:50:10 10° SE
SL-8 R/B 3.8 05:41:56 40° NW 05:43:34 66° NNE 05:48:21 10° E
Cosmos 2237 Rocket 4.1 05:46:36 13° SW 05:46:36 13° SW 05:47:30 10° SW
Cosmos 1703 4.3 05:41:47 10° N 05:45:34 45° ENE 05:49:21 10° SSE
SL-16 R/B 2.6 05:46:42 33° WNW 05:48:15 40° WSW 05:53:28 10° S
ATLAS 2AS CENTAUR R/B 4.2 05:42:48 10° NNW 05:50:13 37° NE 05:57:17 10° ESE
ERBS 2.2 05:51:26 55° WNW 05:52:05 79° SW 05:55:30 10° SE
Cosmos 1842 Rocket 3.8 05:47:59 10° SSW 05:52:07 43° WNW 05:56:18 10° N
COSMO-SKYMED 1 3.0 05:49:04 10° SSW 05:53:07 38° W 05:53:54 35° WNW
Helios 1B rocket 4.4 05:51:36 10° SE 05:55:08 29° ENE 05:58:42 10° N
Cosmos 2151 3.0 05:52:46 19° NNW 05:55:37 56° W 05:59:46 10° S
Cosmos 1356 Rocket 4.0 05:52:28 10° N 05:56:30 56° ENE 06:00:34 10° SSE
Meteor 1-4 Rocket 3.4 05:57:30 32° NW 05:57:30 32° NW 06:00:09 10° N
IDEFIX/ARIANE 42P 3.8 05:51:51 10° NNE 05:56:54 45° E 06:01:56 10° S
Cosmos 2297 Rocket 3.0 05:57:08 27° WNW 05:58:01 29° NW 06:02:55 10° N
Cosmos 1340 Rocket 2.6 05:55:44 15° NNW 05:58:56 71° W 06:02:52 10° S
Cosmos 1805 Rocket 3.8 05:55:51 10° N 06:00:18 71° E 06:04:40 10° SSE
Cosmos 1271 Rocket 2.6 05:58:29 10° SSW 06:02:16 63° W 06:06:03 10° N
TELKOM 3 3.4 06:02:47 34° SW 06:03:39 61° SSE 06:05:49 10° ENE
Meteor 1-28 Rocket 3.6 06:00:42 10° S 06:04:16 40° W 06:05:53 26° NW
CZ-3 Stage 3 4.0 06:00:33 10° SW 06:04:48 27° S 06:17:31 10° ESE
Cosmos 1538 Rocket 4.3 06:02:23 17° NW 06:06:18 47° WSW 06:11:24 10° S
Cosmos 2233 Rocket 4.4 06:01:26 10° SW 06:07:13 39° WNW 06:13:04 10° N
Meteor 1-11 4.3 06:01:35 10° NNW 06:07:17 57° W 06:12:56 10° S
Cosmos 1500 Rocket 4.4 06:06:57 26° WNW 06:07:48 28° W 06:11:35 10° SSW
SL-14 R/B 3.8 06:06:43 21° NW 06:08:56 37° W 06:12:40 10° SSW
Cosmos 2227 Rocket 3.5 06:10:37 19° NW 06:11:02 19° NW 06:15:00 10° N
USA 234 3.3 06:05:16 10° ESE 06:11:50 82° NE 06:17:42 14° NW
ATLAS CENTAUR R/B 4.2 06:10:29 11° NNW 06:13:39 21° NNE 06:20:05 10° ENE
Cosmos 923 Rocket 4.0 06:08:38 10° NNW 06:13:53 87° WSW 06:19:08 10° SSE
Meteor 1-16 Rocket 4.3 06:09:02 10° SSW 06:14:14 47° WNW 06:19:23 10° N
YAOGAN 3 4.5 06:10:40 10° N 06:15:01 72° WNW 06:19:22 10° SSW
Cosmos 1626 2.2 06:12:22 10° N 06:16:08 82° E 06:19:51 10° S
SJ-12 4.2 06:12:04 10° NNE 06:16:10 72° ESE 06:20:13 10° S
Ariane Rocket 3.1 06:11:39 10° N 06:16:37 53° WNW 06:21:33 10° SW
Cosmos 292 Rocket 3.7 06:13:29 10° NNW 06:18:17 89° W 06:23:06 10° SSE
Cosmos 1680 Rocket 3.6 06:17:24 10° NNW 06:22:45 87° ENE 06:28:04 10° SSE
NOSS 3-1 (C) 4.2 06:16:00 13° NW 06:22:51 56° WSW 06:30:56 10° SSE
Sich 1 3.1 06:20:52 10° N 06:25:16 85° E 06:29:36 10° S
Cosmos 2034 Rocket 3.9 06:20:39 10° S 06:26:49 79° W 06:33:07 10° N
IRS-1A Rocket 4.3 06:21:07 10° NNE 06:27:03 81° WNW 06:32:52 10° SSW
Cosmos 1633 Rocket 3.1 06:23:17 10° N 06:27:39 80° E 06:32:00 10° S
Cosmos 389 Rocket 3.3 06:24:36 10° S 06:28:12 58° E 06:31:50 10° NNE
SMAP 3.3 06:23:45 10° NNE 06:28:26 76° ESE 06:33:04 10° S
Tiangong 2 4.0 06:27:15 10° S 06:29:18 16° SSE 06:31:22 10° ESE
Cosmos 1943 3.3 06:25:30 10° NNW 06:31:15 81° ENE 06:36:57 10° SSE
CZ-4 R/B 1.3 06:28:05 10° N 06:32:08 75° WNW 06:36:14 10° SSW
Cosmos 1328 Rocket 4.5 06:28:33 10° S 06:32:44 52° E 06:36:59 10° NNE
Nadezhda 4 Rocket 4.1 06:26:51 10° N 06:33:15 90° S 06:39:32 10° S
CZ-2C R/B 2.2 06:28:53 10° NNE 06:33:31 84° WNW 06:38:05 10° SSW
Cosmos 2344 4.3 06:27:39 10° SSW 06:35:09 61° ESE 06:43:34 10° NE
Meteor 2-1 Rocket 4.5 06:33:45 10° SSW 06:39:07 46° WNW 06:44:40 10° N
Coronas F rocket 0.8 06:37:27 10° NNW 06:39:51 74° W 06:42:14 10° S
PAYLOAD A 4.2 06:38:04 10° N 06:42:57 48° WNW 06:47:37 10° SW
YAOGAN 1 2.5 06:41:40 10° N 06:46:02 80° WNW 06:50:20 10° SSW
CORIOLIS 4.2 06:41:34 10° NNE 06:47:01 88° ESE 06:52:27 10° SSW
Cosmos 1908 3.1 06:45:10 10° SSW 06:48:58 71° W 06:52:48 10° N
Cosmos 1092 Rocket 4.1 06:43:44 10° N 06:50:05 88° E 06:56:19 10° S
Cosmos 1603 4.4 06:47:10 10° NW 06:52:08 33° WSW 06:57:06 10° SSW
COSMOS 2441 4.4 06:48:56 10° NNE 06:53:45 87° ESE 06:58:33 10° SSW
ISS -0.8 06:56:04 10° SW 06:56:14 10° SW 06:56:23 10° SW
Cosmos 2112 Rocket 4.2 06:52:09 10° NNW 06:57:21 55° WSW 07:02:34 10° S
Cosmos 1666 Rocket 4.1 06:54:38 10° NNW 06:58:47 39° W 07:02:56 10° SSW
Cosmos 2263 Rocket 2.4 06:53:16 10° SSW 06:58:55 80° ESE 07:04:39 10° NNE
CZ-4 R/B 4.4 06:57:52 10° N 07:01:59 66° WNW 07:06:03 10° SSW
Cosmos 2221 3.8 07:00:56 10° WSW 07:04:11 20° WNW 07:07:25 10° NNW
